Temp
19 19 19 19 20 20 20 20 21 21 21 21 21 21 21 21 21 20 17 26 27 27 27 27 27 27 27 26 27 24 24 24 28 29 29 26 26 27 27 27 27 28 28 28 25
19 19 20 20 20 20 20 20 21 21 21 21 21 21 21 21 20 18 28 27 27 26 27 25 25 26 24 26 26 24 23 26 27 29 30 26 26 27 27 27 27 28 28 26 25
19 19 20 20 21 21 20 20 21 21 21 21 21 21 21 20 18 23 28 28 27 26 26 26 26 26 26 26 28 26 25 26 28 28 29 27 27 27 26 27 26 27 27 25 25
17 18 19 20 21 20 20 20 20 21 21 21 21 21 20 19 26 28 28 29 26 26 25 26 25 25 24 26 27 28 27 28 29 30 30 28 28 27 26 28 28 28 28 25 25
17 17 18 20 20 21 21 21 21 21 21 21 21 21 19 19 20 28 28 28 26 25 25 24 25 25 26 26 27 26 27 28 28 27 28 29 27 27 26 29 29 28 29 27 25
18 18 18 19 20 21 21 21 20 21 20 20 20 20 19 21 27 27 27 27 26 25 24 24 24 24 26 26 27 27 28 27 27 28 27 28 29 28 28 29 29 28 27 27 26
18 19 19 20 21 21 21 20 20 20 20 20 20 18 17 20 26 26 26 27 26 25 23 25 26 27 26 26 26 28 28 26 29 30 29 29 30 28 31 28 28 28 27 27 26
20 19 20 21 21 21 21 20 19 20 20 20 19 17 18 25 25 26 26 27 26 26 26 27 27 26 26 25 25 27 26 27 27 29 31 30 28 29 29 28 28 27 26 24 24
20 20 20 21 21 22 21 20 19 20 20 19 17 17 19 25 24 27 27 27 27 26 26 27 27 24 26 24 22 21 25 26 27 28 30 30 28 29 28 26 26 25 24 23 22
20 20 20 21 22 21 20 19 19 19 17 17 17 18 22 27 27 28 28 27 27 27 27 26 21 23 20 21 22 24 26 26 26 28 29 28 27 26 28 26 25 23 23 23 22
20 21 21 22 22 21 20 19 17 17 17 21 22 22 25 28 28 27 27 26 27 26 25 25 23 22 23 23 24 25 25 24 25 27 29 26 26 28 26 25 23 23 23 22 21
20 21 21 22 22 21 19 18 22 23 20 20 21 22 25 27 25 26 28 26 25 24 25 24 22 23 24 24 24 24 24 24 25 27 26 26 26 26 25 26 25 24 23 21 19
21 21 22 22 21 20 20 23 24 23 21 23 21 22 23 25 24 25 26 25 26 24 24 23 24 25 24 24 24 24 24 24 25 27 26 27 26 27 27 26 26 25 24 22 21
20 21 22 22 19 21 20 24 24 24 19 23 25 25 24 26 26 27 28 26 26 25 24 23 24 25 24 24 24 23 24 26 26 25 24 27 24 25 27 25 24 23 21 22 20
21 22 23 23 22 21 25 25 25 24 22 28 28 28 26 26 29 29 28 27 25 25 24 24 26 26 25 25 25 25 27 25 25 24 25 26 24 24 26 27 23 23 20 21 19
22 23 23 23 22 25 25 25 24 20 24 26 28 27 27 28 27 28 28 27 26 25 25 25 26 26 25 27 26 27 26 25 22 21 22 23 23 23 24 27 25 24 24 20 18
23 23 24 23 23 24 25 21 20 21 25 24 25 26 25 23 23 24 24 18 17 19 22 25 25 26 27 26 26 26 23 21 22 21 22 24 22 24 26 25 27 23 23 21 19
23 24 23 22 22 24 23 19 20 23 23 25 25 25 22 21 22 20 19 16 17 16 17 21 23 24 26 25 26 22 22 20 22 21 24 23 22 26 26 27 25 24 25 22 19
23 23 21 22 23 24 17 16 15 17 18 21 23 21 20 20 20 20 15 14 15 15 14 16 21 23 25 27 26 26 22 23 22 23 20 22 23 26 27 25 24 22 21 21 20
22 22 20 21 23 22 16 17 16 17 18 19 17 17 16 15 18 18 14 14 14 15 15 13 13 21 24 27 26 25 25 25 19 22 21 21 22 23 25 25 25 25 21 20 20
21 16 20 21 22 15 14 15 16 17 17 16 15 14 14 14 15 14 14 14 14 15 14 12 12 17 21 24 23 23 23 23 22 19 23 23 23 21 23 23 23 21 21 20 19
15 14 19 21 14 10 12 15 15 16 16 15 15 14 13 13 14 14 14 13 14 14 12 12 11 12 17 19 18 20 16 14 16 18 18 18 20 22 21 21 20 20 19 18 19
13 11 19 18 12 11 14 15 15 15 14 14 13 14 13 12 13 13 12 14 13 13 12 11 10 11 16 17 14 13 14 14 14 14 16 19 21 22 19 19 19 19 19 18 17
9 11 10 9 9 11 12 13 14 15 14 14 14 13 12 12 12 11 11 13 13 13 14 11 9 10 12 13 13 13 13 14 14 13 15 16 18 21 18 19 18 18 18 18 17
7 10 9 9 10 10 11 13 12 12 13 11 12 11 12 9 9 10 11 11 12 13 12 10 8 9 11 12 12 12 12 13 14 15 15 17 18 17 15 15 17 18 18 17 17
7 9 7 8 9 10 9 10 11 12 11 11 10 11 10 9 10 8 9 9 9 10 10 8 7 9 9 11 11 12 12 13 14 16 18 18 18 16 15 16 17 17 18 17 17
9 9 7 8 9 9 9 10 10 11 11 11 10 9 9 10 10 9 8 8 8 9 8 8 7 7 9 11 11 10 12 13 14 15 14 15 14 14 14 15 14 15 17 18 18
Height
791 789 787 785 783 782 780 780 780 780 780 780 780 780 780 779 777 775 771 763 762 763 765 766 768 768 769 769 769 774 808 818 798 792 786 777 781 771 768 772 767 762 763 763 773
789 787 785 783 781 780 779 778 778 778 778 778 779 779 779 778 775 769 757 758 760 762 765 765 769 768 774 773 773 787 809 803 782 775 778 778 778 773 775 775 772 766 765 767 774
787 785 783 781 779 778 778 777 776 776 777 777 777 778 778 777 776 759 754 754 757 761 764 765 768 769 777 775 774 782 798 783 773 770 769 773 776 772 775 781 768 765 765 769 774
785 782 780 779 778 777 776 775 775 775 775 775 776 777 777 777 781 754 754 752 755 761 764 766 768 775 783 783 773 785 776 772 768 765 768 775 767 772 769 759 755 759 759 763 769
784 780 778 776 775 774 775 774 774 774 774 774 775 776 777 778 768 754 753 753 756 760 763 766 771 774 782 778 775 782 774 767 764 767 765 763 770 768 766 747 750 758 761 764 765
782 779 776 774 773 772 773 773 773 773 773 774 774 776 777 783 755 754 753 755 756 759 762 765 768 768 772 775 777 770 769 768 763 760 761 767 766 766 756 749 751 756 762 766 765
781 778 775 772 771 771 772 773 772 773 773 773 774 775 776 764 754 753 754 755 756 758 761 762 763 766 770 776 766 767 774 770 761 757 760 754 771 772 746 748 754 757 760 763 765
780 776 773 770 769 770 771 772 773 773 773 773 774 776 772 753 752 753 754 755 756 758 760 760 763 766 769 766 772 778 780 792 768 760 753 757 787 756 747 752 756 757 759 761 762
779 775 771 769 768 769 771 772 773 773 773 774 776 776 769 752 751 750 753 753 755 758 759 761 763 770 769 785 799 799 805 793 783 762 760 762 776 752 748 752 758 758 759 760 761
778 775 771 769 769 770 771 772 773 774 775 775 776 779 757 751 746 746 748 753 755 756 759 762 774 783 792 798 821 806 798 791 790 771 762 771 771 757 750 753 755 757 759 760 760
777 774 772 770 770 770 771 773 778 778 774 766 761 759 751 747 745 745 746 752 758 761 777 769 787 798 791 788 788 786 791 797 782 768 769 772 770 753 747 755 758 755 757 760 762
776 773 772 771 770 770 772 772 767 767 770 752 751 752 747 748 755 746 747 759 765 780 773 782 794 780 775 780 786 791 794 792 776 763 774 769 770 752 749 744 744 749 756 760 764
775 772 771 771 770 771 770 766 765 763 772 752 747 748 745 747 754 749 746 753 763 777 778 789 776 766 776 780 787 789 793 788 789 766 765 767 773 756 742 740 742 743 744 752 750
774 771 770 770 772 769 767 764 762 760 790 764 750 743 742 742 751 735 738 749 760 773 775 778 764 768 776 780 781 795 773 772 775 784 801 764 803 767 745 750 752 750 754 751 751
771 769 769 769 769 769 767 762 760 761 808 751 746 736 739 747 741 739 735 745 763 764 771 774 763 768 774 771 768 780 761 772 772 784 783 778 795 773 750 754 758 751 753 751 754
768 766 767 768 768 767 763 760 760 795 799 764 748 752 751 744 745 740 741 740 744 760 759 759 748 754 758 751 758 752 762 768 781 790 804 784 788 781 766 746 746 742 741 748 751
765 765 767 768 769 765 762 760 798 808 769 780 772 760 762 769 767 762 765 796 808 805 785 762 759 748 745 760 750 758 782 813 808 808 801 767 786 764 737 734 727 735 732 735 743
765 766 768 770 767 763 761 782 810 791 789 772 772 767 782 787 779 782 791 813 809 814 809 792 781 756 742 755 758 769 778 808 814 812 784 766 778 748 723 713 716 718 717 726 737
766 767 769 767 764 762 773 814 834 825 812 796 781 791 799 796 796 791 825 834 829 823 831 817 785 751 744 738 746 756 777 760 778 776 796 773 753 726 716 718 716 720 720 723 724
767 768 771 768 763 763 789 813 825 821 811 802 816 816 824 823 810 807 830 841 837 829 824 830 823 768 747 734 736 744 741 767 789 793 800 776 764 752 728 720 711 709 715 719 725
769 779 776 768 767 781 820 825 827 820 814 819 827 832 834 836 828 835 840 840 837 832 830 835 829 791 767 755 757 754 759 754 758 774 770 771 756 733 726 720 715 711 710 710 716
778 800 785 772 798 820 832 827 828 829 823 829 831 837 840 839 835 837 842 842 840 835 840 836 834 821 789 769 770 767 789 798 799 784 778 774 758 719 715 711 714 712 714 720 726
797 805 791 777 822 836 833 833 834 835 835 836 842 841 841 846 843 843 847 840 841 841 840 838 841 829 788 779 787 799 800 804 801 799 786 778 748 718 720 711 711 714 717 722 729
802 822 818 812 828 833 839 844 841 838 842 842 843 843 846 850 848 850 849 842 841 839 833 839 848 839 826 817 816 808 805 807 807 812 790 777 759 738 738 726 715 713 716 721 726
812 837 839 848 846 842 842 848 849 849 848 849 851 852 850 862 860 856 849 846 841 836 838 843 854 843 831 823 820 817 808 804 800 794 792 764 761 752 751 744 733 720 716 721 723
826 836 843 851 850 849 854 860 857 852 854 856 861 855 857 861 860 861 853 850 850 843 841 848 851 837 831 820 814 805 804 796 787 776 762 757 754 752 746 737 726 720 718 719 721
830 834 840 859 858 859 864 861 861 856 858 859 860 858 858 854 852 848 847 847 847 847 849 850 853 849 827 812 812 814 794 787 777 766 766 765 762 754 746 741 739 728 725 716 715
Wind_Speed
13 12 11 10 9 9 9 9 9 9 9 10 10 9 10 11 13 12 8 13 4 16 13 13 3 4 1 3 2 3 4 1 3 1 2 1 2 3 0 1 2 2 2 9 31
13 12 12 11 10 9 8 8 8 8 9 9 9 8 8 10 12 14 17 13 14 4 4 1 3 4 2 2 2 4 4 8 5 4 1 6 5 3 1 1 2 1 6 29 33
15 13 12 11 10 9 8 7 7 7 8 8 7 6 6 7 4 7 6 7 17 12 5 2 2 2 2 2 2 3 5 5 6 4 5 7 3 4 4 4 10 13 13 19 27
18 14 12 11 10 8 7 6 5 6 6 6 5 4 3 2 1 2 8 4 20 12 8 3 2 4 3 4 2 2 6 5 4 2 2 3 2 5 8 8 5 4 12 20 21
18 15 12 10 9 7 6 5 4 4 4 4 4 3 1 1 9 8 11 6 18 15 8 4 3 3 2 3 1 5 6 5 6 5 7 6 10 8 10 14 2 7 7 16 16
19 16 12 9 7 6 6 5 3 4 4 4 3 4 2 3 4 8 3 13 14 15 7 7 7 6 2 2 4 4 4 8 4 9 6 10 7 5 11 0 5 10 7 8 10
20 16 13 9 6 4 5 5 3 3 2 2 4 4 1 13 1 4 6 7 14 15 5 11 8 3 2 8 3 3 5 6 3 3 5 5 4 10 6 11 9 5 6 9 10
21 17 14 9 5 3 5 4 2 2 1 2 6 2 7 4 7 15 8 4 9 13 14 2 9 1 4 3 7 5 3 3 6 3 4 4 9 10 6 10 10 8 7 6 3
22 17 14 8 2 4 5 4 2 1 2 5 3 2 9 8 6 16 12 4 8 10 10 7 3 4 3 3 5 7 3 2 8 5 4 3 7 8 4 9 9 8 8 8 6
21 16 13 7 3 7 7 5 4 4 5 2 1 3 6 1 4 9 25 14 2 2 1 3 4 2 4 4 5 3 2 3 4 5 1 5 10 8 4 11 14 11 12 11 9
21 14 12 7 5 7 9 6 2 0 4 8 6 5 4 7 1 4 11 8 2 5 3 2 3 7 7 6 6 3 3 5 6 3 3 9 12 17 6 7 10 12 13 11 8
19 12 8 7 4 5 3 2 4 2 8 13 12 8 10 4 5 4 10 5 5 5 1 4 7 7 5 3 4 5 4 11 8 5 5 12 12 15 9 16 21 17 15 13 8
18 12 5 3 4 3 5 8 14 13 2 7 5 5 5 10 7 8 13 6 4 6 5 7 7 5 6 5 5 6 5 8 9 10 6 6 8 5 3 3 12 14 15 17 22
17 10 4 5 2 3 7 20 18 3 5 6 3 5 4 5 4 11 15 6 1 9 6 7 7 11 6 7 7 6 8 12 10 1 6 3 6 6 3 6 8 9 10 16 13
15 8 1 1 5 1 10 21 10 3 4 4 2 4 3 7 1 1 5 4 10 8 6 10 4 4 5 8 6 10 5 8 11 6 2 3 3 8 2 3 8 11 10 12 7
13 3 2 1 3 9 20 18 2 5 2 7 5 5 1 2 5 4 2 4 3 5 4 10 3 5 8 9 8 5 4 1 3 3 4 8 7 6 5 7 5 8 13 10 10
6 4 4 3 8 22 20 3 4 3 7 8 6 8 5 8 9 10 6 16 9 8 4 13 13 6 3 5 8 5 5 4 5 2 7 6 4 8 7 9 10 13 18 17 16
9 11 9 23 21 16 6 5 6 6 5 4 6 6 6 11 7 12 6 9 15 11 4 3 9 7 4 11 14 7 9 6 6 4 9 3 7 7 12 11 6 11 15 15 17
11 11 17 33 19 8 5 6 2 6 11 11 5 5 8 7 6 5 9 11 12 14 6 8 6 10 13 5 8 4 4 7 4 4 2 5 8 6 6 9 8 10 9 18 21
4 3 12 35 10 6 6 6 4 10 8 3 6 12 9 10 9 8 6 13 9 12 6 7 8 9 8 4 5 8 5 6 1 4 8 5 6 6 7 11 9 6 13 13 15
5 4 27 21 8 7 4 5 5 12 7 8 6 6 6 6 5 6 9 8 15 13 7 6 2 8 9 3 5 5 3 2 3 5 9 11 8 6 8 9 10 8 10 19 20
5 4 30 14 5 3 4 5 7 13 8 8 5 7 4 6 5 3 4 5 12 12 6 4 4 5 7 22 8 5 9 7 3 7 3 2 8 4 4 3 5 7 9 10 12
4 2 23 10 5 3 5 8 8 11 9 4 6 5 3 4 3 6 6 4 12 12 8 6 3 7 10 3 6 7 7 13 6 3 6 3 6 2 6 8 7 11 11 14 13
4 4 5 7 3 7 4 9 4 5 10 5 4 4 4 4 3 3 9 6 14 12 12 2 2 5 9 9 9 16 17 10 4 4 9 10 11 8 12 8 5 12 16 16 15
4 2 2 4 6 9 10 4 6 5 4 9 7 6 3 5 6 5 3 10 5 6 2 2 4 7 12 13 14 20 25 18 13 11 11 20 20 7 11 12 10 4 13 13 14
4 4 4 3 4 11 8 4 9 4 5 4 5 1 4 3 4 6 7 2 6 4 2 1 4 5 15 16 18 12 12 15 16 18 13 19 20 3 12 11 8 10 12 14 17
9 5 4 5 4 5 4 5 7 5 6 6 4 4 3 4 7 12 9 7 7 3 2 0 3 3 10 7 8 9 4 7 12 4 2 4 4 12 17 15 13 8 6 11 17
Wind_Direction
335 330 326 324 311 297 294 281 275 275 275 274 278 284 292 295 299 288 249 243 230 232 248 295 353 14 277 312 108 115 69 180 259 214 236 2 89 239 48 285 360 2 119 160 159
333 325 320 319 315 301 294 282 272 271 270 271 273 278 288 304 303 264 271 256 215 178 176 316 61 16 53 278 347 98 123 206 223 161 258 185 165 218 255 112 292 161 83 131 148
335 322 313 310 308 300 284 280 273 269 269 267 268 275 289 318 308 249 328 297 203 204 203 114 98 87 85 337 223 133 187 200 260 228 204 200 207 240 112 245 223 186 154 149 160
340 327 310 301 298 296 277 274 270 269 267 267 262 261 283 335 264 262 342 335 171 183 164 140 73 115 119 202 219 163 241 226 272 145 102 203 172 239 176 235 55 194 161 155 173
350 342 327 305 294 289 259 252 256 261 264 264 257 225 164 340 252 298 321 154 157 167 184 144 147 137 164 201 291 173 251 273 255 281 219 205 209 212 220 236 288 154 176 171 178
353 349 340 322 298 283 249 239 243 262 262 255 226 178 135 261 274 305 257 164 172 177 180 159 187 207 264 248 167 199 246 283 285 287 226 165 234 156 251 207 227 165 195 144 177
356 350 342 331 306 269 224 218 227 274 283 246 191 147 189 237 331 318 186 194 198 196 162 204 194 85 95 321 256 261 317 339 292 296 264 163 157 215 234 166 210 134 163 145 179
357 352 344 331 303 239 196 192 197 286 319 147 156 139 247 263 306 247 202 232 212 216 211 233 214 153 178 242 0 1 50 340 290 5 288 133 258 258 227 158 206 165 149 125 135
359 357 352 342 318 165 160 154 162 152 125 129 121 156 267 303 263 229 210 217 199 210 231 269 173 187 54 77 10 4 246 220 308 215 252 176 261 266 148 159 179 163 151 150 135
360 1 1 5 100 141 142 141 140 114 107 131 255 333 272 282 234 208 219 222 225 141 294 162 57 80 36 81 232 239 305 295 240 292 48 300 270 271 164 167 168 160 160 163 155
1 4 14 35 114 145 140 125 48 255 210 202 196 235 284 286 292 203 186 150 290 50 193 6 82 221 228 205 190 279 256 254 261 220 338 271 266 272 206 162 167 171 167 166 152
1 1 20 51 95 158 181 211 242 110 297 228 238 255 260 20 336 306 164 144 139 208 127 350 252 218 219 182 206 243 269 277 290 250 162 271 260 273 179 183 182 177 175 170 159
358 354 353 4 343 192 252 262 333 289 309 297 187 207 211 162 210 258 160 169 149 159 186 198 228 145 189 244 222 230 207 268 234 309 213 260 283 286 178 112 192 186 183 175 176
355 348 334 349 107 317 274 342 336 152 37 285 265 284 134 164 249 212 174 141 157 198 194 236 247 237 211 232 169 264 209 247 273 330 260 147 267 294 265 139 198 186 187 196 187
348 342 274 325 320 249 323 341 338 79 55 335 63 159 148 165 260 81 170 71 190 200 131 240 212 192 210 227 149 235 232 221 248 238 207 277 127 266 299 161 213 204 216 209 204
343 341 150 126 289 341 338 327 108 42 0 351 26 352 145 272 346 11 127 47 208 195 245 232 201 183 228 263 172 243 319 83 46 118 235 224 181 260 196 207 183 226 213 187 175
359 109 117 39 338 325 330 37 44 72 325 355 337 339 40 356 8 15 19 54 32 347 295 271 254 251 199 290 285 165 74 312 307 296 239 228 179 224 229 225 208 195 207 190 173
95 106 81 11 351 340 353 57 71 346 353 2 329 335 74 9 2 13 65 28 28 4 297 260 289 189 217 205 231 189 158 170 244 251 285 314 237 256 222 226 198 202 207 177 173
117 102 31 354 348 344 71 56 42 335 327 329 337 21 16 6 358 53 64 14 25 358 358 345 278 327 303 237 157 250 169 207 210 292 323 230 287 285 220 240 228 209 181 188 183
112 72 23 347 7 53 70 100 98 1 333 17 48 18 41 1 16 19 39 19 359 355 336 350 290 270 299 291 255 189 183 253 43 217 252 250 253 236 233 245 250 223 191 176 167
55 48 347 355 39 50 80 70 49 353 28 42 23 41 65 8 342 22 21 48 14 357 30 359 246 306 338 292 284 329 287 252 239 164 250 267 259 217 232 260 254 233 194 173 170
64 55 347 11 52 42 43 6 48 1 16 53 72 57 53 348 28 89 60 34 19 13 2 2 280 280 280 300 327 32 21 47 43 305 261 228 261 252 226 219 187 120 117 117 136
87 17 355 40 92 53 57 68 84 46 30 62 45 54 359 34 47 62 25 352 20 8 358 349 322 318 304 358 33 40 353 1 291 209 251 202 274 282 257 134 146 125 120 127 124
79 43 347 26 52 110 108 33 82 39 44 40 16 60 34 46 338 9 2 342 332 323 327 26 288 260 267 296 314 302 311 328 293 285 321 282 311 314 335 334 152 140 141 145 150
38 70 240 7 13 64 72 29 28 34 57 15 26 52 38 38 343 355 273 312 286 281 354 148 243 247 269 282 299 288 288 290 265 262 260 286 287 291 313 301 279 246 152 162 173
100 103 17 45 25 54 30 31 41 21 31 38 49 13 73 126 205 279 290 263 248 321 306 333 264 278 285 276 266 275 298 282 268 263 255 266 264 2 315 315 313 186 177 174 182
39 72 98 349 25 64 21 39 38 13 70 87 4 5 328 291 277 266 246 250 243 264 279 193 324 319 283 278 291 295 242 278 278 211 268 260 313 325 328 332 338 322 287 202 184